Regional Weather Roundup
Issued by NWS Newport/Morehead, NC

Current Version | Previous Version | Graphics & Text | Print | Product List | Glossary Off
Versions: 1 2 3 4 5 6 7 8 9 10 11 12 13 14 15 16 17 18 19 20 21 22 23 24 25 26 27 28 29 30 31 32 33 34 35 36 37 38 39 40 41 42 43 44 45 46 47 48 49 50

000
ASUS42 KMHX 191322
RWRMHX
WEATHER ROUNDUP FOR EASTERN NORTH CAROLINA
NATIONAL WEATHER SERVICE NEWPORT/MOREHEAD CITY NC
900 AM EDT SAT APR 19 2014

NOTE: "FAIR" INDICATES FEW OR NO CLOUDS BELOW 12,000 FEET
WITH NO SIGNIFICANT WEATHER AND/OR OBSTRUCTIONS TO VISIBILITY

NCZ015>017-031-032-045>047-102-103-191400-
NORTH COAST

CITY           SKY/WX    TMP DP  RH WIND       PRES   REMARKS
EDENTON        RAIN      47  45  93 NE9       30.19F
ELIZABETH CITY CLOUDY    49  43  80 N10       30.21S
KITTY HAWK     DRIZZLE   47  45  91 N15G24    30.16F
MANTEO         CLOUDY    48  44  87 NE16G25   30.19R

$$

NCZ045>047-081-094-103-104-191400-
CENTRAL COAST

CITY           SKY/WX    TMP DP  RH WIND       PRES   REMARKS
FRISCO         HVY RAIN  50  50 100 NE13G26   30.12R FOG
SWANQUARTER      N/A     50 N/A N/A NE15      30.12S

$$

NCZ095-097-098-100-101-191400-
SOUTHERN COAST

CITY           SKY/WX    TMP DP  RH WIND       PRES   REMARKS
BEAUFORT       RAIN      54  52  93 NE16G31   30.07F FOG
CEDAR ISLAND     N/A     55 N/A N/A N24G33    30.15S
JACKSONVILLE   LGT RAIN  53  53 100 N16       30.05F
NEWPORT          N/A     54  54 100 NE10G20     N/A
PINEY ISLAND   RAIN      55  54  96 NE23G36   30.11S FOG
WILMINGTON     LGT RAIN  56  53  90 NE22G35   29.96F


$$

NCZ011>013-027>030-043-044-078>080-089-090>093-098-191400-
COASTAL PLAIN

CITY           SKY/WX    TMP DP  RH WIND       PRES   REMARKS
AHOSKIE        CLOUDY    47  45  92 N8        30.21F
CLINTON        LGT RAIN  48  47  98 NE14G22   30.06F
ELIZABETHTOWN  CLOUDY    49  49 100 N5        30.03F
GOLDSBORO      LGT RAIN  47  47  98 NE12G20   30.11F
GREENVILLE     LGT RAIN  46  45  93 NE13      30.16F
HAVELOCK       HVY RAIN  54  52  93 NE14      30.11S FOG
KENANSVILLE    LGT RAIN  47  46  95 NE9G21    30.09F
KINSTON        LGT RAIN  48  46  93 N14       30.12F
NEW BERN       HVY RAIN  52  48  87 NE12      30.13R FOG
RICHLANDS      CLOUDY    50 N/A N/A N15G23    30.07F
ROANOKE RAPIDS NOT AVBL
ROCKY MOUNT    LGT RAIN  46  44  93 N14       30.17F FOG
WASHINGTON     CLOUDY    48  44  86 NE10      30.15F
WHITEVILLE     RAIN      53  51  92 N8        30.05R

$$

AMZ130-135-150-152-154-156-158-170-250-252-270-ANZ085-086-088-633-658-670-191400-
MARINE OBSERVATIONS

STATION/POSITION TIME  TEMP    WIND        PRES    WAVE   SWELL
                       AIR SEA DIR/SP/G            HT/PER HT/PER
                 (UTC) (F)     (DEG/KT/KT) (MB)    (FT/S) (FT/S)
CHESAPEAKE LIGHT 1300   46      40/ 18/ 20 1024.1
BUOY 44014       1300   48 48   30/ 19/ 23 1022.7    7/10   5/10
DUCK             1300   47 49   20/ 23/ 25 1021.2
2E DUCK          1300      47                N/A     6/ 5   2/11
OREGON INLET     1300   48 51   20/ 19/ 24 1021.3
BUOY 44095       1300      48                N/A     7/11   2/11
HATTERAS CG      1300   52 57   30/ 19/ 28 1019.5
DIAMOND BUOY     NOT AVBL
CAPE LOOKOUT     1300   55      30/ 27/ 33 1018.2
BEAUFORT LAB     1300   54 58   20/ 14/ 24 1017.7
30 SE NEW RIVER  1300   58 65   40/ 25/ 33 1016.7    8/ 6
5 SE WRIGHTSVILL 1300   57 59   50/ 25/ 29 1014.8
FRYING PAN BUOY  1300   66 66  110/  6/  8 1013.9    7/ 6   7/ 6
BUOY 41001       NOT AVBL
BUOY 41002       NOT AVBL
BUOY 41004       NOT AVBL

$$



USA.gov is the U.S. government's official web portal to all federal, state and local government web resources and services.